Location: Bellflower
(33.8817°N, 118.1170°W)
Time: 23:18:02
(UTC+00:00)

Cosmos 1709 Rocket - Pass Details

Date: 23 November 2020
Orbit: 947 x 1003 km, 82.9° (Epoch: 20 January)

Event Time Altitude Azimuth Distance (km) Brightness Sun altitude
Rises 12:51:31 0° 185° (S) 3,681 7.1 -20.8°
Reaches altitude 10° 12:54:00 10° 186° (S) 2,743 6.4 -20.3°
Maximum altitude 13:00:20 87° 276° (W) 1,005 4.0 -19.0°
Drops below altitude 10° 13:06:45 10° 5° (N) 2,779 6.3 -17.7°
Sets 13:09:17 0° 6° (N) 3,733 7.0 -17.2°
